Rbgn^[z[y[W
メイン
   新天体発見情報
     Comet C/2020 H4 (Leonard)
投稿するにはまず登録を

スレッド表示 | 新しいものから 前のトピック | 次のトピック | 下へ
投稿者 スレッド
佐藤裕久
投稿日時: 2020-6-26 1:13
モデレータ
登録日: 2005-6-12
居住地: 日本
投稿: 2505
オンライン
Comet C/2020 H4 (Leonard)

Gregory J. Leonard (アリゾナ大学, 惑星科学学科)の通報によると、4月21.5日UT、Mt 
Lemmonサーベイの1.5-m反射望遠鏡で得たCCD画像から彗星を発見した。
約2".0のシーイングで得た30秒露出4枚のスタックで、10" の拡散したコマがあるが、認識
できる尾はなかった。
小惑星センターのPCCP webpageに公表後、佐藤英貴氏(東京都文京区, iTelescope天文台,
4月21.8日UT、60秒露出9枚のスタック, 0.51-m f/6.8 アストログラフ, Siding Spring, NSW, 
遠隔操作:強く集光した8" のコマを見つけたが尾はない。4".9の円形範囲で測定した光度
は19.5等であった)らCCD位置観測者によって彗星状と観測された。

彗星機能の追加報告は次の通り:

OC   Date        Reporter           Coma    Tail    PA          Exposures
Q62  2020-04-21  H. Sato              8"                         9x60s
G96  2020-04-24  K. W. Wierzchos     15"                         4x60s

発見位置は次のとおり、

     2020 UT             R.A. (2000) Decl.       Mag.   Observer
     Apr. 21.47283   21 58 47.49   + 3 22 16.9   19.5   Leonard
          21.47805   21 58 47.80   + 3 22 24.7   19.7     "
          21.48325   21 58 48.05   + 3 22 32.5   19.7     "
          21.48845   21 58 48.41   + 3 22 41.6   19.6     "

MPCの楕円軌道要素と位置推算表は次のとおり、

Orbital elements:
    C/2020 H4 (Leonard)                                                         
T 2020 Aug. 29.27475 TT                                 Rudenko                 
q   0.9274655            (2000.0)            P               Q                  
z  +0.0164376      Peri.  117.48146     -0.21612746     -0.57789258             
                   Node   307.76453     +0.03064689     +0.80161244             
e   0.9847547      Incl.   84.56071     +0.97588406     -0.15315896             
From 25 observations 2020 Apr. 21-30.                                           
                                                                                
Ephemeris:
Date    TT    R. A. (2000) Decl.     Delta      r    Elong.  Phase   m1
2020 04 03    21 41 33.1 -03 03 03   3.0246  2.4645    47.7    17.4  20.8
...
2020 04 18    21 55 34.8 +02 01 13   2.6591  2.2821    57.5    21.8  20.2
...
2020 04 26    22 02 56.7 +05 15 21   2.4586  2.1839    62.5    24.1  19.8
...
2020 05 02    22 08 24.4 +07 59 47   2.3075  2.1097    66.0    25.9  19.6
2020 05 03    22 09 18.7 +08 29 00   2.2823  2.0973    66.6    26.2  19.5
2020 05 04    22 10 13.0 +08 58 46   2.2572  2.0849    67.2    26.5  19.5
...
2020 05 10    22 15 37.4 +12 10 03   2.1075  2.0104    70.5    28.3  19.2
...
2020 05 18    22 22 48.1 +17 04 30   1.9123  1.9107    74.6    30.7  18.7
...
2020 06 02    22 36 24.8 +28 57 38   1.5746  1.7235    80.3    35.5  17.9

(MPEC 2020-J21、CBET 4766)

スレッド表示 | 新しいものから 前のトピック | 次のトピック | トップ

投稿するにはまず登録を
 
© 1999 Tsutomu Seki.